Probability
97 97 100 71 0 0 0 0 0 0 0 0 0 0 0 0 0 0 0 3 13 29 90 100 100 100 100 100 100 100 100 100 100 97 94 97 94 94 90 90 87 90 87 94 94 100 97 94 90
94 90 84 6 0 0 0 0 0 0 0 0 0 0 0 10 16 13 29 35 26 65 100 100 100 100 100 100 100 100 100 100 100 100 100 97 94 94 87 77 81 90 90 94 94 97 100 94 94
84 74 19 0 0 0 0 0 0 0 0 0 0 0 0 0 23 29 35 45 32 81 100 100 100 100 100 100 100 100 100 100 100 100 97 97 90 87 74 61 71 74 87 84 90 97 94 94 90
84 23 0 0 0 0 0 0 0 0 0 0 0 0 0 3 10 23 55 39 52 84 100 100 100 100 100 100 100 100 100 97 97 97 97 97 90 74 61 55 61 65 74 74 81 94 87 90 90
35 0 0 0 0 0 0 0 0 0 0 0 0 0 0 10 13 32 48 45 35 71 97 100 100 100 100 100 100 100 100 100 97 97 97 97 90 84 65 68 65 48 48 58 74 90 90 81 84
3 0 0 0 0 0 0 0 3 0 0 0 0 0 3 6 6 19 32 32 26 42 61 68 87 100 100 100 100 100 100 100 100 100 100 100 94 87 84 71 65 55 48 45 61 74 90 90 90
0 0 0 0 0 0 0 0 0 0 0 0 0 0 0 3 3 6 13 6 13 19 23 39 48 58 74 90 100 100 100 100 100 100 100 100 97 97 87 81 77 65 58 45 45 55 68 81 81
0 0 0 0 0 0 0 0 0 0 0 0 0 0 0 0 0 0 0 0 0 3 0 3 10 13 23 29 58 87 94 100 100 100 97 97 97 100 100 97 90 74 65 58 45 48 55 65 77
0 0 0 0 0 0 0 0 0 0 0 0 0 0 0 0 0 0 0 0 0 0 0 3 3 3 6 6 16 35 58 71 90 97 94 97 97 97 97 100 100 97 87 74 61 42 48 52 68
0 0 0 0 0 0 0 0 0 0 0 0 0 0 0 0 0 0 0 0 0 0 0 0 0 0 0 3 3 3 10 16 26 48 71 84 87 84 90 90 100 100 100 97 90 81 48 39 6
0 0 0 0 0 0 0 0 0 0 0 0 0 0 0 0 0 0 0 0 0 0 0 0 0 0 0 0 0 0 3 3 6 13 26 35 55 58 74 61 61 77 90 87 87 84 42 3 0
0 0 0 0 0 0 0 0 0 0 0 0 0 0 0 0 0 0 0 0 0 0 0 0 0 0 0 0 0 0 0 0 3 10 13 10 19 23 26 32 29 26 32 32 45 26 10 0 0
0 0 0 0 0 0 0 0 0 0 0 0 0 0 0 0 0 0 0 0 0 0 0 0 0 0 0 0 0 0 0 0 3 3 6 6 13 23 23 16 16 13 3 3 6 3 0 0 0
0 0 0 0 0 0 0 0 0 0 0 0 0 0 0 0 0 0 0 0 0 0 0 0 0 0 0 0 0 0 0 0 0 0 3 3 6 10 10 16 10 6 0 3 3 6 0 0 0
0 0 0 0 0 0 0 0 0 0 0 0 0 0 0 0 0 0 0 0 0 0 0 0 0 0 0 0 0 0 0 0 0 0 0 0 3 3 10 3 10 6 0 0 0 3 0 0 0
0 0 0 0 0 0 0 0 0 0 0 0 0 0 0 0 0 0 0 0 0 0 0 0 0 0 0 0 0 0 0 0 0 0 0 0 0 0 0 6 3 3 0 0 0 0 0 0 0
0 0 0 0 0 0 0 0 0 0 0 0 0 0 0 0 0 0 0 0 0 0 0 0 0 0 0 0 0 0 0 0 0 0 0 0 0 0 0 0 3 3 3 0 0 0 0 0 0
0 0 0 0 0 0 0 0 0 0 0 0 0 0 0 0 0 0 0 0 0 0 0 0 0 0 0 0 0 0 0 0 0 0 0 0 0 0 0 0 0 3 0 0 0 0 0 0 0
0 0 0 0 0 0 0 0 0 0 0 0 0 0 0 0 0 0 0 0 0 0 0 0 0 0 0 0 0 0 0 0 0 0 0 0 0 0 0 0 3 0 0 0 0 0 0 0 0
0 0 0 0 0 0 0 0 0 0 0 0 0 0 0 0 0 0 0 0 0 0 0 0 0 0 0 0 0 0 0 0 0 0 0 0 0 0 0 0 0 3 0 0 0 0 0 0 0
0 0 0 0 0 0 0 0 0 0 0 0 0 0 0 0 0 0 0 0 0 0 0 0 0 0 0 0 0 0 0 0 0 0 0 0 0 0 0 0 0 0 0 0 0 0 0 0 0
0 0 0 0 0 0 0 0 0 0 0 0 0 0 0 0 0 0 0 0 0 0 0 0 0 0 0 0 0 0 0 0 0 0 0 0 0 0 0 0 0 0 0 3 0 0 0 0 0
0 0 0 0 0 0 0 0 0 0 0 0 0 0 0 0 0 0 0 0 0 0 0 0 0 0 0 0 0 0 0 0 0 0 0 0 0 0 0 0 0 0 0 3 3 0 0 0 0
0 0 0 0 0 0 0 0 0 0 0 0 0 0 0 0 0 0 0 0 0 0 0 0 0 0 0 0 0 0 0 0 0 0 0 0 0 0 0 0 0 0 0 0 3 0 0 0 0
0 0 0 0 0 0 0 0 0 0 0 0 0 0 0 0 0 0 0 0 0 0 0 0 0 0 0 0 0 0 0 0 0 0 0 0 0 0 0 0 0 0 0 0 0 0 0 0 0
0 0 0 0 0 0 0 0 0 0 0 0 0 0 0 0 0 0 0 0 0 0 0 0 0 0 0 0 0 0 0 0 0 0 0 0 0 0 0 0 0 0 0 3 0 0 0 0 0
0 0 0 0 0 0 0 0 0 0 0 0 0 0 0 0 0 0 0 0 0 0 0 0 0 0 0 0 0 0 0 0 0 0 0 0 0 0 0 0 0 0 0 0 3 3 0 0 0
0 0 0 0 0 0 0 0 0 0 0 0 0 0 0 0 0 0 0 0 0 0 0 0 0 0 0 0 0 0 0 0 0 0 0 0 0 0 0 0 0 0 0 0 0 0 0 3 0
0 0 0 0 0 0 0 0 0 0 0 0 0 0 0 0 0 0 0 0 0 0 0 0 0 0 0 0 0 0 0 0 0 0 0 0 0 0 0 0 0 0 0 0 0 0 0 0 0
0 0 0 0 0 0 0 0 0 0 0 0 0 0 0 0 0 0 0 0 0 0 0 0 0 0 0 0 0 0 0 0 0 0 0 0 0 0 0 0 0 0 0 0 0 0 0 0 0
Height
5918 5918 5918 5918 5918 5917 5915 5915 5914 5913 5913 5912 5912 5911 5911 5911 5911 5912 5909 5908 5907 5907 5907 5906 5906 5905 5905 5904 5903 5903 5902 5902 5901 5901 5901 5901 5900 5900 5900 5899 5899 5899 5898 5898 5899 5899 5900 5901 5901
5919 5919 5919 5919 5918 5917 5917 5916 5915 5914 5913 5912 5912 5911 5911 5910 5909 5908 5908 5907 5906 5906 5906 5905 5905 5904 5904 5903 5903 5902 5902 5901 5901 5901 5901 5900 5900 5900 5900 5899 5899 5899 5898 5898 5898 5898 5898 5899 5899
5919 5920 5920 5919 5918 5918 5917 5916 5916 5915 5914 5913 5912 5911 5911 5910 5908 5907 5907 5906 5905 5904 5904 5904 5903 5903 5903 5902 5902 5902 5901 5901 5901 5900 5900 5900 5900 5900 5899 5899 5899 5899 5898 5898 5897 5897 5897 5897 5897
5921 5921 5921 5920 5918 5918 5917 5917 5916 5915 5913 5912 5912 5911 5910 5909 5908 5907 5906 5904 5903 5903 5902 5902 5901 5901 5901 5901 5901 5901 5900 5900 5900 5899 5899 5899 5899 5899 5899 5899 5899 5898 5898 5897 5897 5897 5896 5896 5896
5921 5921 5921 5919 5918 5917 5917 5916 5916 5914 5913 5912 5911 5910 5909 5908 5906 5905 5904 5903 5901 5901 5900 5899 5899 5899 5899 5898 5898 5898 5899 5899 5899 5898 5898 5898 5898 5898 5898 5898 5898 5898 5898 5897 5897 5896 5896 5896 5896
5922 5921 5920 5919 5918 5917 5916 5916 5915 5914 5913 5912 5911 5910 5908 5907 5905 5904 5903 5901 5899 5898 5897 5897 5896 5896 5896 5896 5896 5896 5896 5896 5896 5897 5897 5897 5897 5897 5897 5897 5897 5897 5897 5897 5897 5896 5896 5896 5896
5922 5921 5919 5919 5918 5917 5916 5915 5914 5913 5912 5912 5910 5909 5907 5905 5904 5902 5901 5899 5897 5896 5895 5894 5894 5893 5893 5892 5892 5892 5893 5893 5893 5894 5894 5894 5895 5895 5895 5895 5896 5896 5896 5896 5896 5896 5896 5896 5896
5920 5920 5918 5917 5917 5916 5915 5914 5912 5911 5911 5910 5908 5907 5905 5903 5901 5900 5898 5897 5895 5893 5892 5891 5890 5890 5889 5889 5889 5889 5889 5889 5889 5890 5890 5891 5891 5892 5893 5893 5894 5894 5895 5895 5895 5895 5896 5896 5896
5919 5919 5917 5916 5915 5914 5913 5911 5910 5908 5908 5906 5905 5903 5902 5900 5898 5896 5895 5893 5891 5890 5889 5888 5886 5886 5885 5885 5884 5884 5884 5884 5885 5885 5886 5886 5887 5888 5889 5890 5891 5891 5892 5893 5893 5894 5894 5895 5895
5917 5916 5915 5914 5913 5912 5910 5909 5907 5905 5903 5902 5900 5898 5896 5895 5893 5891 5889 5888 5886 5885 5884 5882 5882 5881 5880 5880 5880 5880 5879 5879 5880 5880 5881 5881 5882 5883 5885 5886 5887 5888 5889 5890 5891 5892 5892 5893 5894
5915 5914 5913 5911 5910 5909 5907 5905 5903 5901 5898 5896 5894 5892 5890 5888 5886 5885 5883 5881 5880 5878 5877 5876 5875 5874 5874 5874 5874 5874 5874 5874 5875 5875 5875 5876 5877 5878 5879 5881 5882 5884 5885 5886 5887 5889 5890 5891 5892
5912 5911 5910 5909 5907 5906 5904 5901 5899 5896 5893 5890 5888 5885 5883 5882 5880 5878 5876 5874 5872 5871 5869 5868 5867 5867 5867 5867 5867 5867 5867 5868 5868 5868 5869 5870 5871 5872 5873 5875 5877 5878 5880 5881 5882 5884 5886 5887 5889
5910 5909 5907 5906 5904 5902 5899 5897 5894 5891 5887 5884 5882 5879 5877 5874 5872 5870 5867 5865 5863 5862 5860 5859 5859 5858 5858 5858 5858 5858 5859 5860 5860 5861 5862 5863 5865 5866 5867 5869 5870 5872 5874 5876 5877 5879 5881 5883 5885
5908 5906 5904 5902 5900 5898 5895 5892 5889 5885 5882 5879 5876 5873 5870 5868 5865 5862 5859 5857 5855 5853 5851 5850 5849 5848 5848 5848 5848 5849 5849 5850 5851 5853 5854 5855 5857 5859 5861 5862 5864 5866 5867 5869 5871 5873 5875 5878 5880
5905 5903 5901 5899 5896 5893 5891 5888 5884 5880 5877 5873 5870 5868 5865 5862 5859 5856 5853 5850 5847 5845 5843 5841 5840 5839 5839 5839 5839 5839 5839 5840 5842 5843 5845 5847 5849 5851 5853 5855 5857 5859 5861 5863 5865 5867 5869 5871 5874
5901 5900 5897 5895 5892 5889 5888 5884 5879 5875 5872 5869 5866 5863 5860 5857 5853 5850 5847 5843 5841 5838 5836 5833 5832 5830 5830 5829 5829 5829 5830 5831 5832 5833 5835 5837 5839 5842 5844 5847 5849 5851 5853 5856 5858 5860 5863 5865 5867
5897 5895 5893 5891 5888 5885 5882 5879 5875 5871 5868 5864 5861 5858 5855 5852 5848 5844 5841 5837 5834 5831 5828 5826 5824 5822 5821 5820 5820 5819 5820 5821 5822 5823 5825 5827 5829 5832 5835 5838 5840 5843 5845 5848 5851 5853 5855 5857 5859
5893 5891 5889 5887 5884 5881 5878 5875 5871 5867 5864 5861 5857 5854 5851 5847 5843 5839 5835 5832 5828 5825 5822 5819 5817 5815 5813 5812 5811 5810 5811 5811 5812 5814 5815 5817 5819 5822 5824 5827 5830 5833 5836 5840 5843 5845 5847 5850 5852
5890 5888 5886 5884 5881 5878 5874 5871 5867 5864 5861 5858 5854 5851 5848 5844 5840 5836 5832 5828 5824 5820 5816 5813 5811 5808 5806 5805 5803 5802 5802 5802 5803 5804 5805 5807 5810 5812 5815 5817 5820 5823 5826 5830 5833 5836 5839 5842 5845
5887 5885 5883 5880 5877 5874 5871 5868 5865 5861 5859 5856 5852 5849 5846 5842 5838 5833 5829 5825 5821 5817 5813 5809 5806 5804 5801 5799 5797 5795 5795 5794 5794 5795 5796 5797 5800 5802 5805 5807 5810 5813 5816 5820 5823 5826 5830 5834 5837
5885 5883 5880 5877 5874 5871 5869 5866 5863 5860 5857 5854 5851 5848 5844 5841 5837 5832 5828 5823 5819 5815 5811 5807 5804 5800 5797 5794 5792 5790 5789 5788 5787 5787 5788 5788 5790 5792 5794 5797 5800 5803 5806 5810 5813 5817 5821 5824 5827
5882 5880 5878 5875 5872 5870 5868 5865 5862 5859 5856 5854 5851 5847 5844 5840 5836 5832 5827 5823 5819 5814 5810 5806 5802 5799 5795 5791 5789 5786 5784 5782 5781 5781 5780 5780 5781 5783 5785 5787 5790 5793 5796 5800 5803 5806 5810 5814 5818
5880 5878 5876 5874 5871 5869 5866 5864 5862 5859 5856 5854 5851 5847 5844 5840 5836 5832 5828 5823 5819 5814 5810 5806 5802 5798 5794 5790 5786 5783 5781 5779 5777 5776 5775 5774 5775 5775 5777 5779 5781 5784 5787 5790 5793 5796 5800 5804 5808
5879 5878 5875 5873 5870 5868 5865 5863 5862 5859 5856 5854 5851 5848 5844 5840 5837 5833 5828 5824 5819 5815 5811 5806 5801 5797 5793 5789 5785 5782 5779 5776 5774 5772 5770 5769 5769 5769 5770 5771 5773 5775 5777 5780 5783 5786 5790 5794 5798
5879 5878 5876 5873 5870 5868 5865 5863 5862 5859 5857 5854 5851 5848 5844 5841 5837 5833 5829 5825 5820 5816 5811 5807 5802 5798 5793 5789 5785 5782 5778 5775 5772 5770 5768 5766 5765 5764 5764 5764 5765 5766 5768 5770 5773 5776 5779 5783 5787
5878 5877 5876 5873 5870 5868 5866 5864 5863 5860 5857 5854 5851 5848 5845 5841 5838 5834 5830 5826 5821 5817 5812 5808 5803 5798 5794 5790 5785 5781 5778 5774 5771 5768 5766 5764 5762 5760 5759 5758 5758 5758 5759 5760 5763 5765 5769 5773 5777
5878 5877 5876 5874 5871 5869 5867 5865 5863 5860 5858 5855 5852 5849 5846 5842 5838 5835 5831 5826 5822 5818 5813 5809 5804 5799 5794 5790 5786 5782 5778 5774 5771 5767 5765 5762 5760 5757 5756 5754 5753 5752 5752 5753 5754 5756 5759 5762 5766
5879 5877 5876 5874 5872 5870 5869 5866 5864 5861 5859 5856 5853 5850 5846 5843 5839 5835 5831 5827 5823 5819 5814 5809 5805 5800 5795 5791 5786 5782 5778 5774 5770 5767 5764 5761 5758 5756 5753 5751 5749 5747 5746 5746 5747 5748 5750 5752 5755
5879 5878 5876 5875 5873 5871 5869 5870 5865 5862 5859 5857 5854 5850 5847 5844 5840 5836 5832 5828 5824 5820 5815 5811 5806 5801 5796 5792 5787 5783 5778 5774 5770 5766 5763 5760 5757 5754 5751 5748 5746 5744 5742 5741 5741 5741 5742 5744 5746
5879 5878 5877 5876 5874 5871 5870 5871 5866 5863 5860 5857 5854 5851 5848 5844 5841 5837 5833 5829 5825 5821 5817 5812 5807 5803 5798 5793 5788 5784 5779 5775 5770 5766 5762 5759 5755 5752 5749 5746 5743 5740 5738 5737 5736 5735 5735 5736 5737
Wind_Speed
7 8 10 10 8 7 7 6 7 8 8 8 7 6 5 5 4 3 2 2 2 2 2 3 2 1 1 1 3 4 5 5 6 6 6 6 6 5 5 4 3 2 2 3 5 7 9 11 13
6 8 9 10 8 7 7 6 7 8 8 8 7 7 6 6 5 3 3 3 4 3 4 5 4 4 3 2 1 1 2 2 3 4 4 4 4 4 4 4 4 3 2 3 4 5 6 8 10
6 8 9 9 7 6 5 5 6 6 7 8 8 8 7 7 6 5 5 5 6 6 6 6 6 6 6 5 5 3 2 1 1 1 1 2 2 3 3 3 3 3 3 3 3 3 4 5 7
6 8 9 9 7 6 4 5 5 6 8 9 9 9 9 8 7 7 7 8 8 8 9 9 9 9 9 9 8 7 6 5 4 3 3 2 2 2 2 2 2 3 3 3 3 3 3 3 4
6 7 8 8 6 7 4 5 6 8 9 10 10 10 10 9 9 9 9 10 11 11 11 11 11 11 11 11 11 11 10 9 8 7 6 6 5 4 3 2 2 2 2 2 2 2 2 1 2
5 7 8 7 7 7 7 8 8 8 9 10 11 11 11 11 11 11 12 12 13 13 12 12 12 13 13 14 14 14 14 13 13 12 11 10 9 8 7 5 4 3 2 2 2 2 2 1 1
6 8 8 7 8 9 11 11 11 11 12 11 12 12 13 14 14 14 14 14 14 14 14 14 14 15 16 17 17 17 17 17 17 16 16 15 13 12 10 9 8 7 5 4 3 2 1 1 0
7 8 9 10 11 13 14 15 15 14 14 14 14 15 15 16 17 17 17 16 17 17 16 17 17 18 18 18 19 20 20 20 20 20 20 19 18 16 14 13 11 10 9 7 6 4 3 2 2
8 10 11 13 15 16 16 17 18 18 18 18 18 19 20 20 21 21 21 21 21 21 20 21 21 20 20 20 21 21 21 22 22 22 23 23 21 20 19 17 15 14 13 11 10 8 6 5 4
10 12 13 15 17 18 19 20 21 21 22 22 23 23 24 24 25 25 26 27 27 27 27 27 27 26 25 24 24 24 24 24 24 24 25 24 24 23 22 21 19 17 16 15 14 12 10 9 8
12 14 16 18 19 20 21 22 23 24 25 25 26 26 26 27 27 28 29 30 31 32 33 33 33 32 32 32 31 30 29 28 27 26 25 25 25 26 25 24 22 21 19 18 17 16 15 13 12
14 16 18 19 20 21 23 24 25 26 26 27 28 28 29 29 30 31 32 33 34 35 36 36 36 36 37 37 37 36 35 33 32 31 30 27 26 26 26 26 24 24 23 22 21 20 19 18 16
16 17 19 21 22 23 24 24 25 26 27 29 30 30 31 32 33 33 33 34 34 35 35 36 36 37 37 38 39 39 39 38 37 35 34 32 30 27 27 27 27 27 26 25 24 22 22 22 21
17 19 20 22 22 23 24 25 25 27 29 30 31 31 31 31 31 31 32 33 34 34 34 35 35 35 35 36 37 38 40 40 40 40 39 37 35 33 30 28 28 28 28 27 26 25 25 26 25
18 20 21 22 23 24 25 25 26 28 29 29 29 29 28 28 28 28 29 30 31 32 32 33 33 33 33 34 34 35 37 39 40 41 42 41 40 39 36 34 32 31 29 27 26 27 26 26 27
19 20 22 23 23 24 25 25 26 27 28 28 27 27 27 27 27 27 27 27 28 29 31 32 32 32 32 33 34 34 35 35 36 38 40 42 43 43 41 40 38 36 34 31 29 29 29 27 29
20 21 22 23 23 23 23 24 25 25 25 25 26 26 25 26 26 26 26 27 27 28 29 29 30 30 31 31 32 32 33 34 34 35 37 38 40 42 43 42 42 40 38 36 34 32 31 30 30
20 21 21 22 22 22 22 23 23 23 23 24 24 25 26 25 25 25 25 26 26 26 26 26 26 27 27 28 29 29 31 32 32 33 35 36 37 39 40 42 43 43 41 39 38 36 33 31 30
19 20 21 21 21 21 21 21 21 21 21 22 23 23 23 23 23 23 23 23 23 22 21 21 21 22 23 24 25 26 27 29 30 32 33 35 36 37 39 40 41 43 43 42 41 39 37 34 32
18 19 20 20 20 20 20 19 19 19 19 20 20 20 20 20 20 21 21 20 20 19 19 18 18 18 18 19 20 22 23 25 26 28 31 33 35 37 38 39 41 42 42 43 43 42 40 38 37
16 17 18 18 18 18 18 16 17 17 17 17 17 17 17 18 19 19 20 19 19 19 18 18 17 17 17 17 17 18 19 20 22 24 26 29 32 34 36 38 40 41 41 42 44 45 44 42 41
14 15 16 17 17 16 15 14 14 14 14 14 14 15 16 17 18 19 19 19 19 19 19 18 18 17 17 16 16 15 15 16 17 19 21 23 26 29 32 35 38 40 41 42 43 44 44 44 43
11 13 14 14 14 13 13 12 12 12 11 12 13 14 16 16 18 19 19 19 20 20 20 19 19 18 18 17 16 15 14 14 14 15 16 18 21 24 27 30 34 37 40 41 43 44 44 45 44
9 11 11 12 12 12 12 12 11 10 10 12 13 15 16 17 17 18 19 20 20 21 21 21 20 19 19 18 16 15 15 14 13 13 13 15 16 19 22 25 29 33 36 39 41 43 44 44 45
8 9 10 11 12 11 12 11 11 10 11 13 14 15 16 17 18 18 19 20 21 22 22 22 21 20 20 18 17 16 15 14 13 13 12 12 14 15 18 21 25 29 33 37 40 42 43 44 45
6 8 10 11 11 11 11 11 11 11 12 13 14 15 16 17 17 17 18 19 20 22 22 22 22 21 21 20 19 18 16 15 14 13 12 12 12 13 15 18 21 24 28 32 36 40 42 44 45
6 8 9 10 10 11 11 11 12 12 13 14 15 16 17 17 17 17 18 19 20 21 22 22 22 22 21 20 19 19 17 16 15 14 13 12 12 12 13 14 17 20 23 27 31 35 38 41 43
5 6 8 8 9 10 10 11 11 12 13 14 15 16 17 17 17 17 19 20 20 21 22 22 23 23 22 21 20 19 18 17 16 15 14 13 12 12 13 13 14 16 18 20 24 29 32 36 39
4 5 6 8 9 9 10 11 11 12 13 14 15 16 16 16 17 18 18 19 20 21 22 23 23 23 23 23 22 21 19 18 17 16 15 14 13 13 12 13 13 14 15 17 20 24 27 31 35
5 6 7 7 8 9 9 10 11 12 13 14 15 15 16 16 17 17 18 19 20 21 22 23 23 24 24 24 24 23 22 20 19 17 16 15 14 14 14 14 14 14 14 15 17 19 23 27 30
Wind_Direction
60 59 51 45 42 41 42 41 40 42 41 38 34 27 17 9 1 345 330 300 285 288 296 287 275 253 138 106 90 82 76 73 72 69 67 65 62 59 55 50 41 15 316 280 264 256 252 253 255
47 52 45 41 40 47 50 43 40 40 36 31 25 19 15 9 357 339 316 287 271 269 274 272 267 259 251 237 216 129 88 72 64 61 58 57 55 51 46 42 36 21 353 317 289 269 259 257 259
33 32 28 29 32 40 47 44 42 38 29 23 15 8 5 360 347 327 302 282 271 265 264 262 260 257 254 250 247 243 242 250 313 358 12 19 26 34 35 31 28 19 5 345 317 291 274 265 264
8 12 14 18 19 13 15 29 27 19 20 14 5 356 352 347 337 319 299 283 273 266 262 259 257 256 255 253 251 251 252 254 260 270 281 291 302 322 349 2 6 4 2 0 348 329 308 281 269
355 358 2 4 352 346 341 357 357 6 8 359 350 343 340 337 328 314 300 288 277 267 263 261 259 258 257 256 254 253 253 255 258 262 267 267 267 271 277 288 307 326 339 355 0 359 356 328 281
334 337 345 347 326 322 326 338 342 348 349 342 338 331 325 321 316 309 300 290 284 277 270 263 261 262 261 258 256 253 252 253 255 257 260 261 259 258 258 259 261 268 282 300 327 345 354 2 315
321 322 329 328 316 314 316 321 326 330 331 326 321 315 312 309 305 301 298 296 290 288 284 277 269 264 263 261 257 256 254 252 251 252 254 255 256 255 254 252 251 251 252 256 264 278 300 314 290
310 312 313 308 308 307 308 309 314 318 314 309 305 300 298 295 293 291 289 287 287 286 285 284 280 272 269 267 264 261 258 256 255 254 254 252 251 253 254 253 250 248 247 246 246 246 246 243 232
299 303 301 301 303 303 303 305 307 307 304 300 296 292 289 287 285 282 279 276 275 273 274 274 275 275 273 270 268 267 264 260 258 259 258 257 253 250 250 252 252 250 247 246 244 242 238 235 230
293 296 298 300 301 302 302 303 303 302 300 297 293 288 285 283 281 279 277 274 272 270 269 268 269 269 268 268 268 267 267 266 262 262 260 260 255 251 249 249 250 251 248 246 245 243 239 235 231
288 292 295 298 300 301 301 301 300 299 297 295 292 289 286 285 283 281 279 276 274 271 269 267 267 266 266 266 266 265 264 263 262 264 263 263 256 250 248 249 249 250 248 247 246 244 241 237 233
285 290 294 297 298 299 299 299 299 298 296 296 294 292 290 288 287 285 282 280 277 274 272 271 269 267 266 265 265 263 262 262 260 260 261 262 259 254 250 249 248 248 248 249 248 245 240 237 234
286 290 294 297 298 299 299 299 299 297 296 296 296 295 294 292 291 289 286 284 282 279 277 274 271 269 266 264 263 262 261 260 259 259 258 258 257 258 255 252 251 249 248 249 248 246 243 239 235
286 291 295 298 300 300 300 300 300 299 299 299 300 299 299 298 295 293 290 287 285 283 281 279 277 273 270 267 264 261 260 258 257 257 256 255 255 255 255 256 255 253 250 249 250 248 244 240 236
288 292 296 299 301 301 301 302 302 303 303 304 305 305 304 303 301 297 294 292 289 287 285 283 281 278 275 272 268 265 261 259 257 255 255 254 254 254 253 253 254 254 252 251 250 247 246 243 238
290 294 298 301 302 303 305 305 307 307 308 308 310 310 309 308 306 303 300 296 293 290 288 286 284 282 279 276 272 268 264 261 258 255 253 252 252 253 252 252 252 253 251 252 252 250 247 246 241
292 297 301 304 307 309 311 311 312 312 312 314 316 317 316 314 312 309 306 304 301 297 293 290 287 285 282 279 276 271 267 263 259 256 253 252 251 251 250 250 250 250 251 252 252 250 249 249 244
295 300 305 310 314 315 317 317 317 316 318 320 321 321 321 320 318 317 314 312 309 306 301 296 293 288 285 281 278 274 269 265 261 257 254 252 250 249 249 248 248 248 248 248 248 248 249 249 246
299 304 310 315 318 320 322 321 320 321 322 323 323 324 326 325 325 325 323 321 319 316 312 307 303 297 291 285 281 277 272 267 263 259 255 252 250 249 248 247 247 247 246 245 245 245 246 248 247
302 308 313 318 323 325 326 325 324 326 326 328 330 331 333 335 337 337 337 335 334 331 328 323 318 313 306 298 291 284 277 272 268 264 259 254 251 248 246 246 246 246 244 243 243 243 243 243 246
306 313 320 324 328 329 330 330 330 331 332 334 337 341 344 346 348 349 349 349 348 347 345 340 334 329 324 315 307 298 287 279 273 268 263 257 253 250 248 246 245 245 244 243 242 243 242 241 242
313 320 325 330 333 337 339 340 337 338 340 344 348 351 353 356 359 359 359 360 0 359 357 353 349 344 339 333 326 316 304 294 284 276 270 262 256 251 249 246 245 244 244 243 243 243 242 241 241
323 329 334 338 344 348 351 354 352 354 356 1 3 2 2 5 7 8 7 7 7 6 3 359 356 353 349 346 341 335 324 312 300 292 281 270 262 255 251 248 246 244 243 242 241 241 241 240 240
334 339 345 351 356 2 6 10 9 12 13 12 9 8 9 9 9 9 10 10 10 9 7 5 2 0 358 355 353 348 342 332 320 309 296 283 272 263 257 252 249 247 245 243 242 241 240 240 239
345 353 360 4 10 17 21 24 25 23 18 13 11 11 8 7 7 7 9 11 11 10 9 8 7 6 5 3 0 356 351 345 336 327 315 302 287 276 267 260 255 251 248 246 243 242 240 240 239
360 5 9 15 23 27 30 30 28 26 21 17 15 10 7 5 5 8 8 8 8 8 8 8 8 6 5 3 3 2 360 355 348 340 331 320 307 295 283 273 265 258 254 249 245 242 241 240 240
10 11 15 23 30 34 33 31 29 24 20 16 12 8 6 5 6 6 5 6 6 6 7 8 7 6 5 4 3 3 1 360 357 351 344 337 326 313 302 290 279 268 260 254 248 245 244 242 240
15 13 16 24 31 35 33 30 25 21 16 12 9 6 5 6 6 5 7 8 9 8 9 8 7 8 9 8 5 4 3 360 356 353 350 343 335 328 316 306 293 281 271 261 253 248 246 244 241
21 15 17 25 29 29 27 26 22 18 12 9 6 5 5 6 6 7 10 12 12 12 11 11 13 14 14 14 12 8 5 3 360 356 351 346 340 335 329 320 309 295 281 270 261 254 249 246 243
31 22 18 20 22 21 19 20 14 13 9 6 5 5 7 8 9 11 14 14 15 15 15 16 16 17 17 16 15 13 10 6 3 359 355 350 344 338 331 324 315 306 295 280 270 264 256 250 246